{"data":{"norad_id":66740,"intl_designator":"2025-276CC","name":"NUSAT-51 (YVONNE BRILL)","alt_names":[],"object_type":"PAYLOAD","status":"ACTIVE","operator":null,"country":"ARGN","launch_date":"2025-11-28","launch_site_code":"AFWTR","launch_vehicle":null,"mission":null,"orbit_class":"UNKNOWN","rcs_meters":null,"size_class":null,"mass_kg":null,"dimensions":null,"purposes":[],"wikipedia_slug":null,"has_3d_model":false,"image_url":null,"decayed_at":null,"tle_current":{"epoch":"2026-09-20T10:27:13.030272Z","epoch_age_seconds":123119,"freshness":"FRESH","line1":"1 66740U 25276CC  26263.43556748  .00003910  00000+0  17837-3 0  9997","line2":"2 66740  97.4136 335.6204 0003877  45.0538 315.1011 15.21206157 44907","mean_motion":15.21206157,"eccentricity":0.0003877,"inclination_deg":97.4136,"raan_deg":335.6204,"arg_perigee_deg":45.0538,"mean_anomaly_deg":315.1011,"bstar":0.00017837,"rev_number":4490,"period_min":94.661725721637,"perigee_km":499.53377719216,"apogee_km":504.86879149784,"semimajor_km":6880.338284345,"source":"CELESTRAK","updated_at":"2026-09-21T09:00:16.175045Z"}}}